FW6369 Weather Reports


Display with metric or nautical units.
time (UTC)temp
F
wind
direction
speed
MPH
gust
MPH
rain 1hr
in
rain 24hr
in
rain mn
in
humidity
%
barometer
mb
20260510211550 76 153 1.0 7.0 0.00 0.00 0.00 60 1013.8
20260510210052 75 119 2.0 7.0 0.00 0.00 0.00 62 1013.9
20260510204549 76 108 4.0 9.0 0.00 0.00 0.00 60 1014.1
20260510203045 74 149 0.0 5.0 0.00 0.00 0.00 62 1014.3
20260510201546 74 0 1.0 7.0 0.00 0.00 0.00 63 1014.4
20260510200050 73 0 0.0 5.0 0.00 0.00 0.00 65 1014.6
20260510194551 72 0 1.0 8.0 0.00 0.00 0.00 65 1014.7
20260510193049 71 85 2.0 7.0 0.00 0.00 0.00 67 1014.7
20260510191554 69 135 2.0 8.0 0.00 0.00 0.00 67 1014.9
20260510190054 69 0 2.0 5.0 0.00 0.00 0.00 68 1014.9
20260510184552 68 127 2.0 8.0 0.00 0.00 0.00 70 1015.1
20260510183050 66 119 1.0 7.0 0.00 0.00 0.00 74 1015.1
20260510181551 65 122 3.0 6.0 0.00 0.00 0.00 73 1015.2
20260510180050 65 150 0.0 6.0 0.00 0.00 0.00 73 1015.3
20260510174556 64 300 1.0 6.0 0.00 0.00 0.00 75 1015.3
20260510173050 64 128 1.0 4.0 0.00 0.00 0.00 75 1015.4
20260510171603 62 338 0.0 4.0 0.00 0.00 0.00 82 1015.4
20260510170052 59 126 0.0 3.0 0.00 0.00 0.00 83 1015.4
20260510164553 58 0 0.0 3.0 0.00 0.00 0.00 85 1015.4
20260510163049 57 0 0.0 2.0 0.00 0.00 0.00 88 1015.3
20260510161550 55 0 0.0 3.0 0.00 0.00 0.00 91 1015.2
20260510160052 54 0 0.0 4.0 0.00 0.00 0.00 93 1015.1
20260510154550 53 125 1.0 3.0 0.00 0.00 0.00 94 1015.1
20260510153051 53 125 0.0 2.0 0.00 0.00 0.00 95 1015.0
20260510151550 52 0 0.0 3.0 0.00 0.00 0.00 95 1014.9
20260510150056 52 0 0.0 3.0 0.00 0.00 0.00 95 1015.0
20260510144609 52 119 0.0 3.0 0.00 0.00 0.00 96 1014.9
20260510143106 52 0 0.0 2.0 0.00 0.00 0.00 96 1014.8
20260510141546 52 119 0.0 2.0 0.00 0.00 0.00 96 1014.7
20260510140053 52 0 0.0 1.0 0.00 0.00 0.00 96 1014.6
20260510134609 52 0 0.0 1.0 0.00 0.00 0.00 96 1014.3
20260510133051 51 0 0.0 1.0 0.00 0.00 0.00 96 1014.2
20260510131550 51 119 1.0 4.0 0.00 0.00 0.00 96 1014.1
20260510130053 52 0 0.0 2.0 0.00 0.00 0.00 96 1014.2
20260510124559 52 0 0.0 1.0 0.00 0.00 0.00 96 1014.2
20260510123054 51 0 0.0 2.0 0.00 0.00 0.00 96 1014.2
20260510121548 51 0 0.0 3.0 0.00 0.00 0.00 95 1014.1
20260510120052 51 0 0.0 4.0 0.00 0.00 0.00 95 1014.1
20260510114550 52 215 0.0 2.0 0.00 0.00 0.00 95 1014.2
20260510113052 51 215 0.0 2.0 0.00 0.00 0.00 95 1014.3
20260510111602 52 215 0.0 3.0 0.00 0.00 0.00 95 1014.3
20260510110053 52 117 1.0 3.0 0.00 0.00 0.00 95 1014.2
20260510104608 52 135 0.0 3.0 0.00 0.00 0.00 95 1014.2
20260510103051 52 0 1.0 4.0 0.00 0.00 0.00 95 1014.1
20260510101551 52 133 0.0 4.0 0.00 0.00 0.00 94 1014.2
20260510100053 52 111 2.0 4.0 0.00 0.00 0.00 94 1014.1
20260510094553 52 175 0.0 3.0 0.00 0.00 0.00 95 1014.0
20260510093050 52 175 0.0 3.0 0.00 0.00 0.00 94 1014.1
20260510091555 52 0 0.0 3.0 0.00 0.00 0.00 94 1014.1
20260510090053 52 289 0.0 3.0 0.00 0.00 0.00 94 1014.1
20260510084550 52 0 0.0 3.0 0.00 0.00 0.00 94 1014.2
20260510083049 52 177 0.0 3.0 0.00 0.00 0.00 94 1014.3
20260510081601 52 172 1.0 4.0 0.00 0.00 0.00 94 1014.4
20260510080049 53 119 1.0 3.0 0.00 0.00 0.00 93 1014.3
20260510074602 53 123 0.0 3.0 0.00 0.00 0.00 93 1014.3
20260510073055 53 121 1.0 4.0 0.00 0.00 0.00 93 1014.4
20260510071552 53 116 0.0 3.0 0.00 0.00 0.00 92 1014.2
20260510070056 53 116 1.0 4.0 0.00 0.00 0.00 92 1014.1
20260510064551 53 0 1.0 5.0 0.00 0.00 0.00 91 1014.1
20260510063054 53 120 1.0 3.0 0.00 0.00 0.00 91 1014.0
20260510061552 53 0 0.0 3.0 0.00 0.00 0.00 90 1014.1
20260510060054 54 98 1.0 3.0 0.00 0.00 0.00 89 1014.1
20260510054549 54 109 1.0 7.0 0.00 0.00 0.00 89 1014.1
20260510053050 55 126 1.0 5.0 0.00 0.00 0.00 88 1014.0
20260510051626 55 86 2.0 4.0 0.00 0.00 0.00 87 1013.9
20260510050056 56 137 1.0 3.0 0.00 0.00 0.00 86 1013.9
20260510044548 56 194 1.0 4.0 0.00 0.00 0.00 85 1013.7
20260510043132 57 0 0.0 3.0 0.00 0.00 0.00 84 1013.5
20260510041553 57 111 2.0 5.0 0.00 0.00 0.00 84 1013.3
20260510040051 58 116 1.0 6.0 0.00 0.00 0.00 83 1013.3
20260510034555 59 176 0.0 3.0 0.00 0.00 0.00 81 1013.0
20260510033053 60 108 1.0 6.0 0.00 0.00 0.00 80 1012.9
20260510031621 61 115 2.0 6.0 0.00 0.00 0.00 77 1012.8
20260510030054 62 137 2.0 6.0 0.00 0.00 0.00 76 1012.7
20260510024553 63 82 2.0 6.0 0.00 0.00 0.00 75 1012.6
20260510023100 64 113 3.0 7.0 0.00 0.00 0.00 73 1012.5
20260510021608 66 90 2.0 7.0 0.00 0.00 0.00 71 1012.5
20260510020054 67 122 2.0 8.0 0.00 0.00 0.00 69 1012.4
20260510014549 67 104 2.0 9.0 0.00 0.00 0.00 68 1012.4
20260510013050 68 86 4.0 9.0 0.00 0.00 0.00 67 1012.4
20260510011607 69 115 3.0 10.0 0.00 0.00 0.00 66 1012.4
20260510010103 70 130 4.0 10.0 0.00 0.00 0.00 65 1012.4
20260510004551 71 82 5.0 10.0 0.00 0.00 0.00 64 1012.5
20260510003050 72 130 6.0 11.0 0.00 0.00 0.00 63 1012.6
20260510001549 73 109 5.0 11.0 0.00 0.00 0.00 62 1012.7
20260510000052 74 85 6.0 11.0 0.00 0.00 0.00 61 1012.7
20260509234551 75 110 4.0 9.0 0.00 0.00 0.00 57 1012.9
20260509233048 74 140 6.0 11.0 0.00 0.00 0.00 55 1013.0
20260509231558 75 131 4.0 11.0 0.00 0.00 0.00 57 1013.1
20260509230050 76 107 3.0 10.0 0.00 0.00 0.00 57 1013.2
20260509224548 77 104 4.0 9.0 0.00 0.00 0.00 56 1013.3
20260509223053 77 128 4.0 9.0 0.00 0.00 0.00 56 1013.5
20260509221556 77 123 4.0 9.0 0.00 0.00 0.00 57 1013.6
20260509220050 78 84 2.0 12.0 0.00 0.00 0.00 55 1013.7
20260509214550 77 191 3.0 11.0 0.00 0.00 0.00 55 1013.8
20260509213102 77 130 5.0 10.0 0.00 0.00 0.00 55 1014.0